Showing default

HUNITY-1, 66670

Orbit data source: Space-Track

HUNITY-1, 66670 is a payload satellite owned by BME (HU) in SSO that was launched on Fri, 28 Nov 2025 UTC via an FALCON 9 launch vehicle from the Air Force Western Test Range (AFWTR). Payload-class satellites include a variety of spacecraft equipped with specific instruments for various scientific and technological missions. These include communications satellites like Starlink; space stations such as the ISS; scientific satellites like the Hubble; Earth observation satellites from companies like Planet Labs, Umbra, and HawkEye 360; GPS; miniature CubeSats for education and research; and military/defense satellites.

Loading next visibility...
Identifier
66670, 2025-276E
Orbit
SSO
Country
Flag of HUHU / HUN
Related business
Manufacturer
BME
Mission
Operational Amateur Technology
Bus & Motor
POCKETQUBE 3P, Unknown motor
Mass
0.75 kg wet, 0.75 kg dry
Launch date (UTC)
2025-11-28 (9 months ago)
Launch vehicle
FALCON 9
Launch site
Air Force Western Test Range (AFWTR)
Object type
Payload
Rocket body
Debris
Shape & HBR
Box + 3 Pan, 0.2 m
Radar Cross Section
0.019 m², Medium (>0.1 m² and < 1m²)

Expand to show TLE details & history
Last TLE update: 16 hours ago

TLE from 16 hours ago
0 HUNITY-1
1 66670U 25276E   26238.16557366  .00025491  00000-0  86830-3 0  9996
2 66670  97.4026 311.9685 0007535 122.0551 238.1423 15.30350586 41176
Epoch: 2026-08-26T03:58Z
TLE epoch observation values (Epoch: 2026-08-26T03:58:25.564Z)
Latitude
0.00005°
Longitude
-82.06051°
Altitude
480.599 km
Speed
7.624 km/s
True Right ascension
20h 47m 52s
True Declination
0° 00' 00"
Sunlit
Object was in full shadow at epoch
Visualization orbit readout
Latitude
Unknown
Longitude
Unknown
Altitude
Unknown
Speed
Unknown
Apparent Right ascension
Unknown
Apparent Declination
Unknown
Sunlit
N/A
Visualization observer readout
Local Sidereal Time
11:46:03
Azimuth
Unknown
Elevation
Unknown
Doppler factor
Unknown
Orbital elements
Apogee altitude
476.879 km
Perigee altitude
466.556 km
Semi-major axis
6,849.854 km
Eccentricity
0.00075
Inclination
97.4026°
RAAN
311.9685°
Arg. of periapsis
122.0551°
True anomaly
238.069°
Mean anomaly
238.1423°
Eccentric anomaly
238.10565°
Mean motion
3.82843 °/min
Orbital period
94.03 mins
BSTAR
0.0008683
Loading maneuver chart data...
Computing Atmospheric mass density...
Loading historical data...
Loading historical data...
Loading historical data...
Loading historical data...
Loading historical data...
Loading historical data...
Loading historical data...

Documentation

Showing up to 5 results
|